Regional Weather Roundup
Issued by NWS

Home | Current Version | Previous Version | Text Only | Print | Product List | Glossary Off
Versions: 1 2 3 4 5 6 7 8 9 10 11 12 13 14 15 16 17 18 19 20 21 22 23 24 25 26 27 28 29 30 31 32 33 34 35 36 37 38 39 40 41 42 43 44 45 46 47 48 49 50

000
ASUS45 KBOU 021807
RWRCO

WEATHER ROUNDUP FOR COLORADO
NATIONAL WEATHER SERVICE DENVER/BOULDER CO
1200 PM MDT TUE SEP 02 2014

NOTE: "FAIR" INDICATES FEW OR NO CLOUDS BELOW 12000 FEET WITH NO
SIGNIFICANT WEATHER AND/OR OBSTRUCTIONS TO VISIBILITY.

COZ001>005-013-030-031-021900-
...NORTHWEST COLORADO...

CITY           SKY/WX    TMP DP  RH WIND       PRES   REMARKS
CRAIG          SUNNY     71  42  35 NE5       30.18F
HAYDEN         SUNNY     66  37  34 NE7       30.20F
MEEKER         SUNNY     75  37  25 CALM      30.18F
MOUNT WERNER   NOT AVBL
STEAMBOAT SPGS SUNNY     66  37  34 CALM      30.23F
WALDEN         SUNNY     68  30  24 SW15      30.27S
$$

COZ006>008-011-021900-
...WEST CENTRAL VALLEYS...

CITY           SKY/WX    TMP DP  RH WIND       PRES   REMARKS
GRAND JUNCTION SUNNY     76  38  25 CALM      30.09F
MONTROSE       SUNNY     77  42  28 NW7       30.16F
EAGLE          MOSUNNY   72  37  28 CALM      30.22F
RIFLE          SUNNY     72  39  30 NE5       30.14F
DELTA          SUNNY     81  39  22 SE3       30.12F HAZE
NUCLA          SUNNY     77  34  20 CALM      30.20F
$$

COZ017>023-064>068-021900-
...SOUTHWEST COLORADO...

CITY           SKY/WX    TMP DP  RH WIND       PRES   REMARKS
DURANGO        SUNNY     80  33  18 S6        30.23F
CORTEZ         SUNNY     83  37  19 VRB5      30.17F
PAGOSA SPRINGS SUNNY     77  26  15 S7        30.31F
TELLURIDE      MOSUNNY   72  28  20 SW5       30.39F
WOLF CREEK PAS SUNNY     55  32  41 SW9G20    30.61S
$$

COZ009-010-012-014-032>034-037-058>063-021900-
...CENTRAL COLORADO...

CITY           SKY/WX    TMP DP  RH WIND       PRES   REMARKS
ASPEN          SUNNY     75  32  20 N10       30.27F
BUENA VISTA    SUNNY     77  23  13 SW12G22   30.26F
COPPER MTN     SUNNY     55  27  33 W29G37    30.57S
BERTHOUD PASS  FAIR      46  45  93 W29G49    30.57R
COTTONWOOD PAS SUNNY     68  18  14 W14G31    30.41F
GUNNISON       SUNNY     64  34  32 W5        30.33F
KREMMLING      SUNNY     70  32  24 NW3       30.26F
LEADVILLE      SUNNY     65  27  23 NW12G24   30.42F
SALIDA         SUNNY     80  27  14 SW17G24   30.31F
SUNLIGHT       SUNNY     63  37  39 W5        30.52S
WILKERSON PASS NOT AVBL
$$

COZ069>075-021900-
...SAN LUIS VALLEY/SANGRE DE CRISTO MOUNTAINS...

CITY           SKY/WX    TMP DP  RH WIND       PRES   REMARKS
ALAMOSA        SUNNY     75  34  22 NE5       30.29F
LA VETA PASS   NOT AVBL
SAGUACHE       NOT AVBL
$$

COZ035-036-038>040-021900-
...NORTHERN COLORADO FRONT RANGE...

CITY           SKY/WX    TMP DP  RH WIND       PRES   REMARKS
DENVER INTL AP MOSUNNY   76  54  46 SE7       30.08F
DMNS CITY PARK   N/A     79  45  30 E7        30.07F
AURORA         MOSUNNY   78  44  30 VRB1      30.10F
FRONT RANGE AP MOSUNNY   79  55  44 E3        30.10
ERIE MUNI ARPT SUNNY     74  45  34 SE6       30.07F
BOULDER MUN AP SUNNY     72  45  37 SE5       30.08F
CENTENNIAL     MOSUNNY   80  36  20 VRB3      30.10F
BROOMFIELD     MOSUNNY   75  39  27 SE5       30.10F
FORT COLLINS   SUNNY     70  50  49 S3        30.09F
LONGMONT       SUNNY     75  45  34 E6        30.09F
$$

COZ041-046-047-076>085-087-088-021900-
...PIKES PEAK/PALMER DIVIDE AND SOUTHERN FOOTHILLS...

CITY           SKY/WX    TMP DP  RH WIND       PRES   REMARKS
COLO. SPRINGS  MOSUNNY   72  53  51 S10       30.18F
A. F. ACADEMY  SUNNY     70  55  59 SE8       30.19F
ELLICOTT       NOT AVBL
FALCON         MOSUNNY   69  55  60 S10       30.23F
FORT CARSON    SUNNY     73  54  51 SE7G17    30.15F
LIMON          CLOUDY    69  58  67 S18G26    30.14F
MONUMENT HILL  SUNNY     72  48  43 S15       30.19F
TRINIDAD       SUNNY     79  49  34 E10       30.15F
$$

COZ042>045-048>051-090-091-021900-
...NORTHEAST COLORADO...

CITY           SKY/WX    TMP DP  RH WIND       PRES   REMARKS
GREELEY ARPT   SUNNY     72  48  43 SE3       30.08F
AKRON          SUNNY     75  57  53 SW13G21   30.08F
BURLINGTON     SUNNY     77  56  48 S17G23    30.09F
WRAY             N/A     80  59  49 S9G17     30.05F
STERLING       SUNNY     73  55  53 S9        30.04F
HOLYOKE        MOSUNNY   77  59  53 S9        30.05F
FORT MORGAN    SUNNY     71  50  47 SE6       30.08F
$$

COZ086-089-092>099-021900-
...SOUTHEAST COLORADO...

CITY           SKY/WX    TMP DP  RH WIND       PRES   REMARKS
PUEBLO         SUNNY     76  59  55 SE10      30.09F
LA JUNTA       SUNNY     78  60  53 S7        30.08F
LAMAR          SUNNY     81  57  43 S7        30.05F
SPRINGFIELD      N/A     79  58  48 SE9       30.09F
$$



USA.gov is the U.S. government's official web portal to all federal, state and local government web resources and services.